Wetbulb
77.65 76.49 76.42 76.55 75.69 75.27 74.81 74.42 75.62 75.91 76.15 76.13 76.14 76.23 76.65 75.69 75.79 75.92 75.73 75.69 75.97 74.48
77.68 76.42 75.76 76.46 76.87 75.66 76.31 75.23 76.09 76.02 75.85 75.96 75.95 76.08 76.36 75.82 75.56 76.03 75.99 75.54 75.73 75.26
76.63 75.75 75.08 76.99 77.04 76.91 76.33 76.17 76.27 76.21 76.00 75.98 75.73 75.80 75.83 74.98 75.76 75.85 75.07 75.60 75.98 75.68
76.61 75.86 76.07 75.14 76.59 76.64 76.66 76.20 76.04 76.62 76.47 75.82 75.28 75.54 75.31 75.69 75.08 74.61 75.42 75.67 75.51 75.82
76.23 75.66 74.02 74.26 73.95 76.42 76.83 77.10 76.58 76.55 76.68 76.39 75.76 75.73 75.28 74.80 74.50 74.63 74.55 74.68 75.49 75.24
71.62 72.38 74.24 74.54 75.25 75.70 75.02 75.36 76.21 76.40 76.16 76.48 76.14 75.85 75.53 75.44 75.26 74.89 74.61 74.83 75.28 75.15
69.81 69.98 70.42 71.97 72.77 73.67 74.86 75.26 74.92 76.08 76.15 75.95 76.31 76.10 75.89 75.64 75.42 75.38 75.09 75.58 75.69 75.57
71.04 71.38 71.35 71.73 72.05 71.69 72.03 72.75 74.18 75.03 75.62 75.77 76.16 76.79 76.49 76.61 76.29 76.09 75.36 75.39 75.70 76.07
71.50 72.12 71.84 72.22 72.36 72.42 72.08 72.34 72.44 72.41 72.70 73.03 73.70 68.67 67.26 70.61 75.66 75.71 76.12 75.92 76.11 76.08
70.43 70.36 70.58 70.86 71.18 71.17 71.50 71.98 72.01 72.03 71.91 71.76 72.21 66.59 67.63 68.73 73.30 73.77 74.71 75.33 75.83 75.62
68.77 68.40 68.79 68.90 68.88 69.44 69.90 70.09 70.22 70.48 70.97 71.22 71.23 65.11 65.41 67.15 72.45 71.74 73.02 74.26 74.85 75.05
67.82 67.51 67.86 67.85 68.26 68.75 68.67 68.80 69.12 69.48 69.82 70.11 70.51 63.75 62.83 66.63 69.92 69.38 70.72 72.40 73.64 74.29
67.27 66.64 66.54 67.19 67.41 68.09 68.46 68.32 68.39 68.59 69.48 67.14 69.42 64.22 61.52 64.56 68.61 67.65 67.86 71.83 72.47 66.32
63.49 63.53 64.58 64.93 65.23 65.80 65.44 66.38 66.92 67.49 68.46 69.14 68.75 69.21 60.49 59.43 68.94 67.89 67.38 68.04 68.59 69.75
MSLP
1013.85 1013.68 1013.63 1013.96 1014.02 1014.02 1014.04 1014.29 1014.85 1015.27 1015.58 1015.84 1015.86 1016.24 1016.24 1016.51 1016.48 1016.36 1016.54 1016.60 1016.61 1015.95
1013.45 1013.94 1013.80 1013.98 1014.04 1013.87 1014.18 1014.22 1014.71 1014.96 1015.10 1015.30 1015.44 1015.69 1015.91 1016.12 1015.97 1016.12 1016.12 1016.06 1016.14 1016.21
1013.23 1013.74 1013.94 1013.89 1013.83 1013.72 1013.90 1014.20 1014.40 1014.72 1014.90 1015.02 1015.17 1015.34 1015.58 1015.36 1015.47 1015.76 1015.68 1015.70 1015.99 1015.78
1013.31 1013.65 1013.83 1013.94 1013.85 1013.92 1013.86 1014.06 1014.20 1014.35 1014.46 1014.57 1014.76 1014.97 1015.12 1015.05 1014.90 1014.97 1015.15 1015.26 1015.40 1015.46
1013.05 1013.63 1013.91 1013.75 1013.70 1013.48 1013.44 1013.54 1013.75 1013.83 1013.96 1014.06 1014.08 1014.28 1014.58 1014.68 1014.45 1014.63 1014.77 1014.79 1014.77 1014.69
1012.81 1012.90 1013.15 1013.34 1013.33 1013.34 1013.35 1013.33 1013.20 1013.20 1013.42 1013.51 1013.54 1013.67 1013.87 1014.05 1014.05 1014.03 1014.03 1014.05 1014.14 1014.15
1012.97 1012.91 1013.05 1013.19 1013.16 1013.06 1013.04 1013.07 1013.11 1013.00 1012.92 1012.88 1012.96 1012.97 1013.05 1013.12 1013.26 1013.29 1013.28 1013.35 1013.47 1013.60
1013.33 1013.34 1013.32 1013.29 1013.28 1013.14 1012.97 1012.71 1012.71 1012.66 1012.64 1012.68 1012.65 1012.44 1012.54 1012.57 1012.45 1012.49 1012.34 1012.35 1012.47 1012.61
1013.43 1013.40 1013.31 1013.22 1013.17 1013.14 1012.95 1012.77 1012.67 1012.56 1012.39 1012.25 1011.97 1011.75 1012.17 1012.50 1012.11 1012.05 1011.85 1011.65 1011.56 1011.75
1013.81 1013.56 1013.45 1013.30 1013.08 1012.90 1012.77 1012.63 1012.48 1012.35 1012.23 1012.09 1011.92 1011.85 1012.04 1012.25 1012.02 1011.61 1011.05 1010.95 1011.15 1011.12
1014.06 1013.85 1013.65 1013.35 1013.02 1012.83 1012.69 1012.51 1012.30 1012.09 1011.93 1011.80 1011.61 1011.64 1011.80 1011.89 1011.71 1011.03 1010.65 1010.41 1010.29 1010.40
1014.23 1014.02 1013.71 1013.35 1012.97 1012.66 1012.41 1012.18 1011.94 1011.74 1011.58 1011.43 1011.19 1011.23 1011.35 1011.46 1010.88 1010.19 1009.89 1009.83 1009.69 1009.63
1014.19 1014.00 1013.70 1013.38 1013.02 1012.70 1012.39 1011.91 1011.54 1011.12 1010.93 1010.80 1010.71 1010.69 1010.74 1010.81 1010.22 1009.34 1008.90 1008.74 1008.94 1009.04
1014.76 1014.47 1013.94 1013.41 1013.22 1012.87 1012.59 1012.21 1011.60 1011.04 1010.58 1010.27 1010.05 1009.89 1010.00 1010.06 1009.91 1009.16 1008.36 1007.73 1007.59 1007.54
Wind_Speed
8 6 5 6 5 5 4 5 4 7 9 10 10 11 9 8 7 8 6 8 7 8
8 7 5 4 5 5 5 5 6 7 8 9 10 11 10 9 9 7 8 8 8 8
4 6 7 6 7 5 5 7 6 8 9 10 11 12 12 11 11 10 9 7 9 8
3 4 5 6 7 6 7 7 8 9 9 10 11 12 13 13 12 12 11 11 11 11
5 2 2 6 8 6 6 7 9 10 11 11 11 11 13 14 13 14 15 14 13 13
6 4 3 3 4 5 6 7 9 9 11 12 12 12 13 14 14 15 15 14 13 14
6 7 6 5 5 5 4 5 7 9 10 11 12 13 14 15 16 16 15 15 15 15
6 6 6 5 5 5 5 5 6 7 8 9 10 10 13 14 14 15 16 16 15 16
8 8 8 8 8 7 8 8 7 8 8 9 8 3 5 7 13 15 15 14 15 15
8 10 10 10 10 10 10 10 9 10 10 11 11 7 8 8 11 13 15 16 14 14
8 10 11 12 12 11 10 11 11 12 12 13 12 9 9 9 11 12 14 15 15 13
8 9 10 11 11 11 11 11 11 12 13 14 14 10 10 9 13 14 15 14 15 15
10 11 12 12 12 11 11 12 11 12 12 13 15 13 11 11 12 15 14 13 15 15
10 12 12 11 11 12 12 13 14 15 14 15 14 15 10 12 13 13 13 13 13 13
Wind_Direction
236 239 242 219 275 261 241 209 188 203 216 228 227 223 229 235 232 236 231 242 259 294
226 235 277 256 231 220 224 239 217 219 219 225 225 225 233 233 244 252 236 254 239 251
240 215 233 234 232 230 240 223 234 217 221 226 224 222 222 235 228 244 248 242 274 261
275 265 232 239 250 234 229 228 225 226 234 226 227 225 225 236 249 234 234 244 241 245
18 115 258 265 268 262 254 235 231 233 230 230 226 228 230 234 243 233 242 242 244 244
1 3 16 358 280 286 274 259 264 240 236 236 232 227 226 233 238 243 245 245 249 249
352 348 351 344 330 314 309 288 274 263 254 244 240 237 234 232 233 239 241 240 239 244
325 324 318 325 321 311 304 303 289 275 265 261 259 246 244 248 248 243 241 244 243 238
314 315 312 312 310 304 298 293 282 277 279 276 266 287 323 289 261 255 255 251 245 244
310 312 311 311 307 301 297 293 283 281 280 276 276 262 236 236 263 267 257 248 250 253
304 303 303 303 301 298 293 289 284 281 278 275 272 254 228 232 261 264 258 260 257 250
307 299 299 296 299 300 297 293 288 279 275 271 270 255 232 239 267 262 258 263 259 254
317 312 308 305 301 297 292 284 285 285 284 278 274 269 246 241 264 265 262 245 249 232
316 307 295 295 300 302 300 300 298 295 290 285 276 275 253 238 258 265 267 259 254 254